FENGYUN 1C DEB

Satellite information

Favourite Embed

Satellite Type and Status

DEBRISIN ORBIT

Key statistics

Satellite FENGYUN 1C DEB at a glance.

Uptime

9609

Days in orbit

Revolutions

≈ 13.6

Per day

Orbit

SSO

Sun Synchronous Orbit

Inclination

98.4

Latest

Satellite identification and parameters

Extended collection of information and parameters for FENGYUN 1C DEB.

Object identification

Identified? True

Debris? True

Object name: FENGYUN 1C DEB

International designator: 1999-025CPF

Object number (NORAD): 31978

Object ID (CCSDS): 31978

Country: PEOPLES REPUBLIC OF CHINA (PRC)

Current information (Y/N): Y

RCS size: SMALL

Orbital parameters

Period: 105.672 minutes

Inclination: 98.3704 deg

SMA: 7404.023 km

Apoapsis: 1220.729 km

Periapsis: 831.047 km

RAAN: 47.5521 deg

Eccentricy: 0.02631556

Argument of periapsis: 339.6962 deg

Mean anomaly: 19.3871 deg

Mean motion: 13.62702769 rev/day

Mean motion (dot): 0.00000623 rev/day2

B* drag term: 0.00067106763 1/REarth

Two-line elements (TLE)

Creation date: Aug. 25, 2025, 9:12 p.m.

Reference frame: TEME

Reference center: EARTH

Epoch: Aug. 25, 2025, 10:06 a.m. UTC

TLE line 0: 0 FENGYUN 1C DEB

TLE line 1: 1 31978U 99025CPF 25237.42148368 .00000623 00000-0 67107-3 0 9993

TLE line 2: 2 31978 98.3704 47.5521 0263156 339.6962 19.3871 13.62702769901019

Live tracking on map

Real-time ground track for satellite FENGYUN 1C DEB.

In-orbit conjunctions

A list of the most updated potential collisions computed for object FENGYUN 1C DEB.

Target Orbit TCA Probability of collision Miss distance Type
COSMOS 2237 LEO 2025-08-27 20:00:56 0.0001635255 193.0 (m) PAYLOAD
FENGYUN 1C DEB SSO 2025-06-21 00:35:29 0.0001079306 22.0 (m) DEBRIS
FENGYUN 1C DEB SSO 2024-11-14 22:20:35 0.0001024737 878.0 (m) DEBRIS
CZ-6A DEB LEO 2024-11-13 18:01:56 0.0004256033 568.0 (m) DEBRIS
SL-12 R/B(2) LEO 2024-08-21 10:11:01 0.0002266036 112.0 (m) ROCKET BODY

Associated space launch

Chinese polar orbiting meteorological satellite

FENGYUN 1C DEB was lifted into orbit during the mission ‘Long March 4B | Feng Yun 1C’, on board a Long March 4B space rocket.

The launch took place on May 10, 1999, 1:33 a.m. from Launch Complex 7.

For more information about the launch, click the button.

Launch to space Long March 4B | Feng Yun 1C
Long March 4B | Feng Yun 1C

Agency: N/A

Status: Launch Successful

Launch date: May 10, 1999, 1:33 a.m. UTC

Rocket: Long March 4B

Launch pad: Launch Complex 7

Location: Taiyuan Satellite Launch Center, People's Republic of China

...

Latest news about this satellite

There are no fresh news available about this satellite. Check back as we update our databases every day.


Newsletter sign-up

Weekly statistics, charts and insights to help you stay on top of the space industry.